Wind_Speed
10 8 8 6 4 2 3 5 9 11 13 13 12 11 11 10 10 9 8 8 8 8 8 8 8 7 8 8 10 10 10 11 10 11 11 11 12 12 13 14 15 16
11 10 9 7 4 2 2 5 8 11 13 13 12 11 11 11 12 11 9 9 9 9 9 8 8 8 8 9 11 11 12 12 12 12 12 13 13 13 13 13 14 14
13 12 10 7 4 2 0 4 7 10 12 13 12 12 12 13 13 11 10 9 10 10 10 10 10 10 11 12 13 13 14 14 13 13 12 13 14 14 14 14 14 14
15 13 11 8 5 3 1 3 6 9 12 12 12 13 14 13 12 10 10 10 11 12 13 14 15 16 16 16 17 17 17 16 15 14 13 14 14 15 15 14 14 14
16 14 12 9 7 5 3 3 6 9 11 12 12 13 13 12 11 10 10 12 13 14 15 17 18 19 19 19 18 17 17 17 16 15 15 15 16 16 16 15 15 15
17 15 12 11 9 6 4 4 6 9 11 12 12 13 12 11 10 10 11 12 13 15 16 18 20 21 20 18 17 16 16 16 16 16 16 17 17 18 18 18 18 18
17 14 12 11 10 8 5 5 7 9 12 13 13 12 12 11 11 11 12 13 14 16 17 20 21 21 21 19 18 17 18 18 18 18 17 17 18 19 20 21 21 22
17 14 12 12 11 8 6 6 8 10 12 13 12 12 12 11 12 12 13 14 15 17 19 21 22 23 22 22 21 21 20 20 19 18 18 17 18 19 20 21 23 24
16 14 13 12 11 8 7 8 9 11 13 13 12 12 12 12 13 13 14 15 17 19 21 22 23 24 25 25 24 22 20 19 18 18 17 17 17 18 20 21 22 23
17 15 14 13 11 9 8 9 10 12 14 13 12 12 12 13 13 14 15 17 19 21 22 23 25 26 26 25 22 20 19 18 17 17 17 17 17 18 19 20 22 23
18 15 15 14 12 10 9 10 12 14 15 13 12 12 12 13 14 14 16 18 20 22 23 25 27 27 26 23 20 19 18 18 17 17 17 17 18 18 19 20 21 22
20 17 16 16 14 12 11 12 13 15 15 13 12 13 13 13 13 15 17 19 21 22 24 26 28 27 24 21 20 19 19 19 19 18 18 17 17 18 19 19 20 21
23 20 18 17 15 14 14 14 16 16 15 13 13 13 14 14 14 16 17 19 21 23 25 27 27 24 22 20 19 19 19 19 19 19 18 17 16 16 17 18 18 19
26 21 19 18 17 17 16 16 17 17 15 13 13 14 14 14 15 17 18 19 21 23 26 26 24 22 20 19 18 18 18 19 19 18 17 16 16 16 16 15 15 15
27 23 21 20 19 19 19 19 18 17 14 13 13 13 13 14 16 17 18 20 22 24 25 23 22 20 19 18 18 18 18 18 18 17 17 16 16 17 17 16 15 14
26 25 22 21 21 21 21 20 19 16 14 13 12 12 13 14 16 17 19 21 23 23 22 20 19 18 18 18 18 18 18 17 17 16 16 17 17 18 19 18 16 15
25 26 23 22 21 22 22 21 18 16 13 12 12 12 13 14 16 17 20 22 22 21 19 17 17 17 17 17 17 17 17 16 16 16 16 17 18 19 18 17 15 13
26 27 25 23 21 22 23 21 17 15 13 12 12 12 13 14 16 17 20 21 20 18 16 16 16 16 16 15 15 15 15 15 15 16 16 17 18 17 16 14 13 11
24 27 26 23 21 23 23 19 17 15 13 12 12 13 13 14 16 17 19 18 17 15 15 15 16 15 15 15 15 15 15 16 16 16 16 17 16 15 14 13 11 10
21 25 26 23 21 23 22 18 16 14 13 12 13 13 14 15 16 17 17 16 15 14 14 15 15 14 14 15 15 15 16 17 17 17 16 16 15 13 12 12 12 12
20 22 23 21 22 23 20 17 15 14 14 13 13 13 14 14 15 16 16 15 13 14 14 14 14 13 13 14 15 16 18 18 18 17 15 14 13 11 11 12 13 14
20 21 20 21 23 23 20 17 16 15 14 13 14 14 14 14 14 15 15 13 13 13 13 14 14 13 13 14 15 17 18 18 17 16 13 12 10 9 9 11 13 14
20 21 21 23 24 22 19 16 15 14 14 14 14 14 13 13 14 15 13 12 12 12 13 13 13 13 13 14 15 17 18 17 15 13 10 8 8 8 10 10 12 14
23 23 24 25 24 21 18 15 14 14 14 14 14 14 13 13 14 14 12 11 11 12 12 13 13 13 13 14 15 17 17 15 13 10 8 7 8 10 11 11 12 13
26 24 24 24 23 21 17 14 14 15 14 14 14 14 13 13 13 13 11 10 10 11 12 13 13 13 13 14 15 15 15 14 11 9 9 9 10 11 11 12 13 14
23 20 21 22 21 19 16 14 15 16 15 14 15 14 13 13 12 11 11 9 9 11 12 13 13 13 13 13 14 14 13 12 11 10 10 10 10 11 11 12 13 14
Wind_Direction
203 205 205 195 172 124 69 44 33 26 18 11 4 358 354 348 343 338 330 323 320 321 322 320 315 310 304 301 302 304 305 305 305 301 297 295 291 287 283 279 274 270
206 206 203 193 175 150 61 40 29 21 14 9 1 353 346 341 341 344 342 339 338 337 335 330 320 311 304 302 302 303 304 304 304 302 299 296 294 294 293 289 283 277
208 205 203 201 200 211 352 28 22 14 8 3 357 348 339 339 345 353 357 360 0 359 357 353 345 334 325 318 313 310 308 306 303 300 297 294 292 293 293 292 290 286
211 208 210 216 221 227 272 6 8 3 1 357 349 341 337 340 349 358 2 3 5 5 3 359 352 345 336 328 322 318 315 313 308 302 297 295 294 293 294 294 293 290
214 214 221 227 225 231 270 337 350 350 351 350 343 336 334 339 347 354 357 357 358 357 355 351 346 340 334 326 320 317 315 314 311 305 297 295 294 294 294 294 292 289
216 218 227 229 225 232 268 317 334 338 341 341 335 330 329 333 341 347 348 349 348 347 345 343 340 338 334 327 320 315 314 313 311 307 300 293 290 289 289 288 286 284
220 222 228 225 224 234 262 302 317 322 329 331 327 324 324 327 334 337 337 338 338 337 336 336 337 337 334 330 323 318 315 312 309 306 300 293 287 283 281 281 280 280
224 227 227 223 226 236 259 288 301 308 317 321 318 317 318 322 328 330 328 328 329 328 330 333 335 334 332 330 326 321 317 313 309 305 300 294 287 281 278 277 277 277
228 230 229 228 232 241 261 280 289 298 307 311 311 311 313 318 322 324 322 322 322 323 326 330 332 331 329 328 326 323 319 316 314 311 306 300 294 288 284 282 281 280
232 231 232 235 239 248 263 276 284 292 299 305 304 305 310 315 318 319 318 317 318 321 325 328 330 329 328 326 326 325 323 321 319 316 312 308 303 299 295 292 291 290
236 235 237 241 246 256 266 273 279 287 294 300 300 302 308 313 315 316 314 314 316 321 325 328 329 329 328 328 329 329 327 325 322 319 314 310 307 304 301 299 297 295
239 237 237 242 250 258 265 270 275 282 291 297 298 302 307 309 311 311 310 313 316 321 326 328 329 329 330 331 331 330 328 326 324 322 318 314 309 305 303 300 298 297
234 236 237 242 251 257 261 266 271 279 289 295 298 301 306 307 306 306 308 312 316 322 327 328 329 330 331 332 331 330 328 326 326 325 322 319 314 307 302 298 297 299
229 232 238 243 251 256 258 262 268 276 285 292 296 300 303 304 303 303 306 311 317 323 326 328 329 330 331 331 331 331 329 326 325 324 321 320 316 311 305 301 299 300
224 223 234 243 248 252 256 260 265 273 282 288 292 296 298 299 300 302 306 312 319 324 326 328 330 331 331 333 333 332 328 324 323 321 319 318 316 315 314 312 310 308
219 218 230 242 246 249 254 258 262 270 279 283 286 289 291 293 297 301 308 315 321 324 327 330 333 333 333 333 333 330 326 324 322 321 320 318 317 319 319 318 316 315
218 218 227 238 243 246 250 254 261 270 276 277 279 281 284 289 295 302 312 319 323 326 329 333 335 335 333 333 333 331 328 327 325 323 322 320 319 321 321 318 315 316
220 220 224 233 239 243 246 252 263 271 273 273 274 276 280 288 297 307 317 322 324 327 331 336 336 335 335 337 338 336 336 335 332 329 325 322 322 324 324 321 316 316
222 221 222 231 238 240 244 253 265 271 272 271 271 275 282 291 302 314 321 323 323 327 332 336 337 337 339 342 342 343 346 344 339 334 329 327 331 333 333 330 326 327
225 220 223 231 237 238 244 257 268 270 269 267 269 277 285 295 309 318 322 321 322 328 334 337 339 341 343 344 345 349 353 349 344 339 334 335 340 345 348 348 342 336
228 221 224 231 234 235 242 258 267 265 263 266 272 279 286 298 312 319 319 318 320 328 335 338 341 344 345 345 348 353 354 351 346 342 339 341 347 353 360 358 347 341
229 223 226 228 229 233 242 255 262 260 261 268 274 279 287 300 313 318 316 313 317 328 335 337 341 346 346 345 349 353 355 352 347 344 343 348 353 359 6 2 352 352
233 229 228 225 223 229 245 256 257 256 261 268 273 278 288 302 313 316 313 310 317 329 335 336 340 346 347 347 350 353 355 353 350 351 357 4 10 16 19 14 3 1
236 230 227 226 226 233 245 253 252 255 261 266 271 280 290 302 311 312 308 309 319 330 334 334 338 345 347 349 353 354 355 357 358 7 24 31 32 29 24 17 12 8
236 234 230 230 234 239 241 244 248 254 259 264 272 280 289 300 307 305 300 307 320 329 333 333 335 343 347 351 355 355 357 3 10 22 37 40 39 35 26 20 20 19
248 248 233 226 233 239 239 240 246 250 256 263 271 278 285 295 300 294 292 304 319 327 331 331 333 340 346 350 355 356 359 10 17 25 34 36 36 35 30 26 27 27
Height
1522 1523 1524 1525 1525 1525 1526 1526 1526 1526 1526 1526 1526 1525 1525 1524 1524 1523 1523 1522 1522 1522 1521 1521 1521 1520 1520 1519 1519 1518 1518 1518 1517 1517 1516 1516 1515 1515 1515 1515 1515 1515
1522 1522 1523 1524 1524 1525 1525 1525 1525 1525 1525 1526 1525 1525 1525 1524 1524 1523 1523 1522 1522 1521 1521 1520 1520 1520 1520 1519 1518 1518 1517 1517 1516 1516 1515 1514 1514 1513 1513 1513 1513 1512
1521 1522 1522 1523 1523 1524 1524 1524 1524 1525 1525 1525 1525 1524 1524 1523 1523 1523 1522 1521 1521 1520 1520 1520 1519 1519 1519 1518 1517 1517 1516 1515 1515 1514 1513 1513 1512 1512 1511 1511 1510 1510
1520 1521 1521 1521 1522 1523 1523 1523 1524 1524 1524 1524 1524 1523 1523 1523 1522 1522 1521 1521 1520 1520 1519 1518 1518 1518 1517 1516 1516 1515 1514 1513 1512 1512 1511 1511 1510 1510 1509 1509 1508 1508
1519 1519 1520 1520 1521 1521 1522 1522 1523 1523 1523 1523 1522 1522 1522 1522 1521 1521 1521 1520 1519 1519 1518 1517 1517 1516 1515 1514 1513 1512 1512 1511 1510 1509 1509 1508 1508 1507 1507 1507 1506 1506
1518 1518 1519 1519 1520 1520 1521 1521 1522 1522 1522 1521 1521 1521 1521 1520 1520 1520 1519 1519 1518 1518 1517 1516 1515 1514 1513 1512 1511 1510 1509 1508 1508 1507 1506 1506 1505 1505 1505 1504 1504 1504
1516 1517 1518 1518 1518 1519 1520 1520 1520 1521 1520 1520 1520 1520 1519 1519 1519 1519 1518 1518 1517 1516 1516 1515 1514 1512 1511 1510 1509 1508 1507 1506 1505 1504 1503 1503 1502 1502 1501 1501 1501 1500
1516 1516 1516 1517 1517 1518 1518 1519 1519 1519 1519 1519 1519 1518 1518 1518 1518 1517 1517 1516 1515 1515 1514 1513 1512 1510 1509 1507 1506 1505 1504 1503 1502 1501 1500 1499 1499 1498 1498 1497 1497 1496
1514 1515 1515 1515 1516 1517 1517 1518 1518 1518 1518 1518 1517 1517 1517 1517 1516 1516 1515 1514 1514 1513 1512 1511 1510 1508 1506 1505 1503 1502 1501 1500 1499 1498 1497 1496 1495 1495 1494 1493 1493 1492
1513 1514 1514 1515 1515 1515 1516 1516 1516 1516 1516 1516 1516 1516 1516 1515 1515 1514 1514 1513 1512 1511 1510 1509 1507 1505 1504 1502 1500 1499 1498 1497 1496 1495 1494 1493 1492 1491 1491 1490 1489 1488
1512 1513 1514 1514 1514 1515 1515 1515 1514 1515 1515 1514 1514 1514 1514 1514 1513 1513 1512 1512 1511 1509 1508 1506 1504 1503 1501 1499 1497 1496 1495 1494 1494 1493 1492 1491 1490 1489 1488 1487 1486 1485
1510 1511 1512 1513 1513 1514 1514 1513 1513 1513 1513 1513 1513 1513 1513 1512 1512 1512 1511 1510 1509 1508 1506 1504 1502 1500 1498 1497 1495 1494 1493 1492 1491 1491 1490 1489 1488 1487 1486 1485 1484 1483
1507 1509 1510 1511 1512 1512 1512 1512 1511 1511 1511 1511 1511 1511 1511 1511 1511 1510 1509 1509 1507 1506 1504 1502 1500 1498 1496 1495 1493 1492 1491 1490 1489 1489 1488 1487 1486 1485 1484 1482 1481 1480
1504 1507 1508 1509 1510 1511 1510 1510 1510 1510 1509 1510 1510 1510 1510 1509 1509 1508 1508 1507 1506 1504 1502 1500 1498 1496 1495 1493 1492 1490 1490 1489 1488 1487 1486 1485 1483 1482 1481 1480 1479 1478
1502 1505 1506 1507 1508 1508 1508 1508 1508 1508 1508 1508 1508 1508 1508 1508 1507 1507 1506 1505 1504 1502 1500 1498 1496 1495 1493 1492 1490 1489 1488 1487 1486 1485 1483 1482 1481 1479 1478 1477 1476 1475
1498 1501 1503 1504 1505 1506 1506 1506 1506 1506 1506 1506 1506 1506 1506 1506 1505 1505 1504 1503 1502 1500 1498 1496 1495 1493 1492 1490 1489 1487 1486 1485 1483 1482 1481 1480 1478 1477 1475 1474 1473 1473
1495 1498 1501 1502 1503 1503 1504 1504 1504 1504 1504 1504 1504 1504 1504 1504 1504 1503 1502 1501 1499 1498 1496 1495 1494 1492 1491 1489 1488 1486 1484 1483 1482 1480 1479 1478 1476 1475 1474 1473 1472 1471
1492 1495 1498 1499 1500 1501 1502 1502 1502 1502 1502 1502 1502 1502 1502 1502 1501 1501 1500 1499 1497 1496 1495 1493 1492 1491 1490 1488 1487 1485 1483 1482 1480 1479 1477 1476 1474 1473 1472 1471 1470 1470
1489 1492 1494 1496 1498 1499 1500 1500 1500 1500 1500 1500 1500 1500 1500 1500 1499 1499 1498 1496 1495 1494 1493 1492 1491 1490 1488 1487 1485 1484 1482 1480 1479 1477 1475 1474 1473 1471 1470 1470 1469 1468
1487 1489 1491 1494 1496 1497 1498 1498 1498 1498 1498 1498 1499 1499 1498 1498 1497 1497 1495 1494 1494 1493 1492 1491 1490 1489 1487 1486 1484 1483 1481 1479 1477 1476 1474 1472 1471 1471 1470 1469 1468 1467
1486 1487 1489 1492 1493 1495 1496 1496 1496 1496 1496 1497 1497 1497 1497 1496 1496 1495 1494 1493 1492 1491 1490 1489 1489 1488 1486 1485 1483 1481 1480 1478 1476 1474 1473 1471 1471 1470 1469 1468 1467 1466
1485 1486 1487 1489 1491 1492 1493 1493 1494 1494 1495 1495 1495 1495 1495 1494 1494 1493 1492 1491 1491 1490 1489 1488 1487 1486 1485 1483 1482 1480 1479 1477 1475 1474 1472 1471 1470 1470 1469 1468 1466 1465
1483 1484 1485 1486 1488 1490 1491 1491 1492 1492 1493 1493 1493 1493 1493 1492 1492 1491 1490 1490 1489 1488 1487 1487 1486 1485 1484 1482 1481 1479 1478 1476 1474 1473 1472 1471 1470 1470 1469 1467 1466 1464
1480 1481 1483 1484 1486 1488 1489 1489 1490 1490 1491 1491 1491 1491 1491 1490 1489 1489 1488 1488 1487 1487 1486 1485 1484 1483 1482 1481 1479 1478 1477 1475 1474 1473 1472 1471 1470 1469 1468 1467 1465 1464
1478 1479 1481 1483 1484 1485 1486 1487 1488 1488 1489 1489 1489 1489 1489 1488 1487 1487 1486 1486 1485 1485 1484 1483 1483 1482 1481 1479 1478 1477 1476 1475 1474 1473 1472 1471 1470 1469 1467 1466 1465 1464
1476 1478 1479 1480 1481 1483 1484 1485 1486 1486 1487 1487 1487 1487 1487 1486 1485 1485 1485 1484 1484 1483 1482 1482 1481 1480 1479 1478 1477 1476 1476 1475 1474 1473 1472 1470 1469 1468 1467 1466 1465 1463